Weather History for 40270 - December, 2013

Change the Weather History Date:

Tuesday, December 3, 2013

  Actual Average Record
Temperature  
Mean Temperature 68 °F -  
Max Temperature 78 °F 56 °F - ()
Min Temperature 58 °F 41 °F - ()
Cooling Degree Days 3    
Growing Degree Days 18 (Base 50)    
Moisture  
Dew Point 40 °F    
Average Humidity 37    
Maximum Humidity 59    
Minimum Humidity 13    
Precipitation  
Precipitation 0.00 in 0.07 in - ()
Sea Level Pressure  
Sea Level Pressure 30.01 in    
Wind  
Wind Speed 5 mph ()    
Max Wind Speed 13 mph    
Max Gust Speed -    
Visibility 2.1 miles    
Events Rain    
T = Trace of Precipitation, MM = Missing Value Source: Averaged Metar Reports

Daily Weather History Graph

Daily Weather History Graph

Search for Another Location

Airport or City:

Trip Planner

Search our weather history database for the weather conditions in past years. The results will help you decide how hot, cold, wet, or windy it might be!

Date:

Astronomy

Dec. 03, 2013 Rise Set
Actual Time 7:20 AM EEST 5:31 PM EEST
Civil Twilight 6:53 AM EEST 5:58 PM EEST
Nautical Twilight 6:23 AM EEST 6:28 PM EEST
Astronomical Twilight 5:53 AM EEST 6:57 PM EEST
Moon 7:29 AM EEST (12/3) 6:11 PM EEST (12/3)
Length of Visible Light 11h 04m
Length of Day
10h 11m
New Moon, 0% of the Moon is Illuminated
Dec 3
New Moon
Dec 9
First Quarter
Dec 17
Full
Dec 25
Last Quarter
Jan 1
New

Hourly Weather History & Observations

Time (EEST) Temp. Dew Point Humidity Pressure Visibility Wind Dir Wind Speed Gust Speed Precip Events Conditions
12:00 AM 63 °F 43 °F 37% 30.06 in 2 mi WSW 4.6 mph - -   Widespread Dust
12:00 AM 62.6 °F 42.8 °F 48% 30.12 in 1.9 mi WSW 4.6 mph - N/A   Unknown
1:00 AM 59.0 °F 42.8 °F 55% 30.12 in 1.9 mi SSW 4.6 mph - N/A   Unknown
2:00 AM 62.6 °F 41.0 °F 45% 30.12 in 1.9 mi SW 6.9 mph - N/A   Unknown
3:00 AM 64 °F 42 °F 33% 30.01 in 2 mi SW 9.2 mph - -   Widespread Dust
3:00 AM 64.4 °F 42.8 °F 45% 30.09 in 1.9 mi SW 9.2 mph - N/A   Unknown
4:00 AM 64.4 °F 42.8 °F 45% 30.06 in 1.9 mi SW 6.9 mph - N/A   Unknown
5:00 AM 60.8 °F 41.0 °F 48% 30.06 in 1.9 mi WSW 6.9 mph - N/A   Unknown
6:00 AM 63 °F 40 °F 32% 30.00 in 2 mi WSW 13.4 mph - -   Widespread Dust
6:00 AM 62.6 °F 41.0 °F 45% 30.06 in 2.5 mi WSW 6.9 mph - N/A   Unknown
7:00 AM 59.0 °F 44.6 °F 59% 30.06 in 2.5 mi Calm Calm - N/A   Unknown
8:00 AM 62.6 °F 41.0 °F 45% 30.06 in 1.9 mi Calm Calm - N/A   Haze
8:12 AM 60.8 °F 41.0 °F 48% 30.06 in 0.9 mi Calm Calm - N/A   Smoke
9:00 AM 59 °F 44 °F 47% 29.99 in 1 mi Calm Calm - -   Smoke
9:00 AM 59.0 °F 44.6 °F 59% 30.04 in 0.9 mi Calm Calm - N/A   Smoke
10:00 AM 66.2 °F 39.2 °F 37% 30.04 in 0.9 mi Calm Calm - N/A   Smoke
11:00 AM 69.8 °F 39.2 °F 33% 30.04 in 0.9 mi Calm Calm - N/A   Smoke
12:00 PM 70 °F 38 °F 21% 29.93 in 2 mi SW 8.9 mph - -   Haze
12:00 PM 69.8 °F 39.2 °F 33% 30.01 in 1.6 mi SW 4.6 mph - N/A   Haze
1:00 PM 73.4 °F 37.4 °F 27% 30.01 in 2.2 mi SW 6.9 mph - N/A   Haze
2:00 PM 77.0 °F 32.0 °F 19% 29.98 in 2.2 mi SSW 5.8 mph - N/A   Haze
3:00 PM 75 °F 34 °F 13% 29.86 in 2 mi West 5.8 mph - -   Haze
3:00 PM 75.2 °F 33.8 °F 22% 29.95 in 2.2 mi West 5.8 mph - N/A   Haze
4:00 PM 75.2 °F 33.8 °F 22% 29.95 in 2.2 mi West 9.2 mph - N/A   Haze
5:00 PM 73.4 °F 33.8 °F 23% 29.95 in 2.2 mi West 6.9 mph - N/A   Haze
6:00 PM 71 °F 35 °F 16% 29.88 in 2 mi West 11.2 mph - -   Haze
6:00 PM 71.6 °F 33.8 °F 25% 29.98 in 2.5 mi West 5.8 mph - N/A   Haze
7:00 PM 66.2 °F 35.6 °F 32% 29.98 in 2.2 mi ESE 6.9 mph - N/A   Haze
8:00 PM 64.4 °F 39.2 °F 40% 29.98 in 2.5 mi SE 4.6 mph - N/A   Haze
9:00 PM 65 °F 41 °F 30% 29.94 in 3 mi Calm Calm - -   Widespread Dust
9:00 PM 64.4 °F 39.2 °F 40% 30.01 in 3.1 mi Calm Calm - N/A   Haze
9:08 PM 64.4 °F 39.2 °F 40% 30.01 in 3.1 mi Calm Calm - N/A Rain Rain
10:00 PM 64.4 °F 42.8 °F 45% 30.01 in 3.1 mi SSW 5.8 mph - N/A Rain Light Rain
11:00 PM 62.6 °F 42.8 °F 48% 30.01 in 3.1 mi SSW 5.8 mph - N/A Rain Light Rain